Location: Argonnex
(45.9500°N, 6.1333°E)
Time: 00:42:03
(UTC+00:00)

Cosmos 2266 Rocket - Pass Details

Date: 28 January 2023
Orbit: 933 x 1008 km, 82.9° (Epoch: 24 March)

Event Time Altitude Azimuth Distance (km) Brightness Sun altitude
Rises 16:57:50 0° 357° (N) 3,732 6.9 -4.5°
Reaches altitude 10° 17:00:36 10° 5° (N) 2,769 6.1 -5.0°
Maximum altitude 17:06:28 38° 72° (ENE) 1,465 4.5 -5.9°
Drops below altitude 10° 17:12:11 10° 140° (SE) 2,706 6.1 -6.9°
Sets 17:14:51 0° 148° (SSE) 3,637 6.9 -7.3°
